Location: ?????????
(55.6553°N, 38.9075°E)
Time: 02:00:11
(UTC+00:00)

Gblst 52 Del rocket - Pass Details

Date: 18 October 2019
Orbit: 805 x 1365 km, 51.5° (Epoch: 16 November)

Event Time Altitude Azimuth Distance (km) Brightness Sun altitude
Exits shadow 01:53:53 33° 250° (WSW) 1,344 4.7 -18.4°
Maximum altitude 01:56:07 54° 191° (S) 998 4.4 -18.1°
Drops below altitude 10° 02:01:43 10° 115° (ESE) 2,513 7.5 -17.4°
Sets 02:04:23 0° 111° (ESE) 3,515 8.5 -17.0°
